Theta_e
307 308 309 311 312 313 317 319 321 323 325 325 327 328 329 329 328 328 328 328 325 326 325 325 325 325 324 323 321 319 318 318
304 306 306 307 306 309 313 317 320 322 323 325 326 326 327 327 327 327 327 326 325 324 324 324 324 324 322 319 318 316 317 317
303 303 304 304 303 304 311 315 319 322 322 324 324 325 325 325 326 326 325 326 324 323 322 322 322 322 320 318 317 316 315 315
302 302 301 302 302 304 306 312 317 319 320 321 322 322 323 323 324 324 323 323 322 321 320 319 320 319 318 318 317 314 314 310
301 302 301 301 301 301 305 309 312 316 317 318 318 319 321 321 321 321 320 320 319 318 317 317 317 317 315 312 308 305 303 302
303 303 303 301 300 300 300 303 307 310 313 311 313 314 314 314 313 311 311 311 311 308 306 305 304 302 303 302 301 300 298 297
301 300 300 301 300 300 299 299 300 303 307 308 304 300 301 299 297 297 296 299 297 296 297 297 296 295 296 298 298 297 297 296
306 306 302 302 301 299 299 300 299 300 298 298 295 296 298 297 297 297 297 296 296 296 295 293 293 294 294 293 298 297 297 295
305 306 306 303 301 301 299 298 299 298 296 295 295 293 292 293 294 294 295 295 294 293 292 291 291 293 292 291 295 294 293 293
307 307 307 304 300 298 297 296 296 295 295 294 295 292 291 291 292 292 291 290 290 289 289 290 290 292 291 290 290 289 289 290
306 307 305 305 300 296 295 294 294 294 294 294 293 290 290 291 290 289 290 288 288 287 288 287 289 291 291 290 290 287 288 288
305 304 304 303 297 295 295 294 296 294 292 291 291 289 291 289 288 288 287 287 286 285 285 286 287 290 290 289 289 288 288 287
302 302 303 300 295 295 294 296 293 292 290 289 288 288 288 287 287 287 286 285 284 284 284 285 286 288 290 289 289 289 286 286
299 298 300 294 294 294 295 292 289 288 287 286 286 286 287 286 286 287 286 286 284 284 284 283 284 287 290 290 289 288 287 287
292 292 292 291 290 293 292 289 287 287 286 285 285 285 286 288 288 287 286 285 284 284 283 282 283 284 286 288 288 286 287 286
290 290 291 290 289 289 287 287 287 286 285 285 285 285 284 285 286 286 286 287 285 284 284 283 283 284 285 286 286 286 286 285
288 288 289 287 287 285 286 287 286 285 284 284 284 284 284 283 282 283 283 284 285 285 285 283 286 286 285 286 286 286 286 284
285 286 286 285 284 284 285 286 286 285 284 283 283 284 283 283 283 281 283 285 284 285 286 286 286 287 287 287 287 287 285 284
280 281 282 283 282 282 285 285 285 285 284 283 283 284 284 284 283 283 281 281 282 285 285 286 286 286 286 285 283 281 282 281
276 276 277 277 274 274 282 284 284 283 283 283 283 283 283 283 281 281 280 279 275 275 278 282 282 283 286 283 281 278 276 275
Wind_Speed
11 13 12 13 12 12 15 18 17 18 17 15 17 17 16 14 16 16 13 13 12 13 13 13 13 13 13 10 10 9 8 7
12 11 13 11 8 10 11 14 14 16 16 16 15 16 16 14 14 14 13 13 14 13 13 13 12 12 11 10 9 8 9 9
11 12 11 10 6 7 9 12 13 13 15 15 16 15 14 15 15 13 14 13 13 12 12 12 12 11 12 10 9 10 10 10
9 11 11 8 8 8 9 11 11 12 14 14 14 13 15 15 15 13 12 12 11 11 11 11 10 9 10 10 9 9 8 4
9 9 9 8 8 9 10 8 9 11 12 13 13 13 13 11 11 11 10 10 9 8 8 7 7 8 6 5 4 4 4 4
16 11 10 10 9 9 8 6 5 8 9 10 6 6 6 7 5 3 4 3 4 5 4 4 4 3 5 5 5 5 5 4
11 11 10 10 10 8 8 7 6 7 8 7 5 4 4 5 5 5 5 5 5 6 6 6 3 7 9 7 6 5 5 5
23 19 14 12 11 12 9 7 7 6 5 5 6 6 6 6 6 6 6 5 5 5 6 6 5 9 10 9 7 7 6 6
22 20 15 12 9 9 9 9 8 7 7 7 8 7 6 6 6 5 5 7 6 6 6 6 4 8 11 10 8 6 6 6
21 21 17 10 10 10 9 9 9 10 9 10 10 10 10 10 9 6 7 6 5 5 6 6 4 9 11 8 6 6 6 5
19 18 14 13 11 11 12 12 14 13 14 12 12 11 11 11 11 7 8 8 7 6 5 4 5 9 10 8 5 6 5 5
18 17 18 12 11 14 13 18 16 11 10 10 11 11 11 11 6 9 9 8 7 7 5 3 4 8 11 11 5 6 6 5
15 18 18 9 12 15 17 17 12 13 12 11 10 9 9 11 10 10 10 10 9 8 7 4 4 8 11 11 9 11 7 6
18 20 18 9 14 15 19 11 12 12 12 11 11 9 10 13 13 11 11 10 9 8 7 7 4 3 11 14 14 12 6 6
17 18 18 9 11 18 6 10 12 13 13 12 12 11 9 7 8 9 9 9 10 9 8 7 6 6 6 5 8 11 7 12
15 18 17 7 11 7 8 13 13 10 10 11 10 12 10 7 7 7 6 8 10 9 9 10 9 7 10 9 8 7 8 8
17 15 14 6 7 6 9 13 14 14 11 10 9 9 9 9 7 6 7 8 10 14 10 3 10 16 15 15 15 15 17 5
17 14 8 6 6 6 8 11 13 13 13 10 10 10 10 10 11 11 10 15 15 15 14 14 16 17 16 16 16 16 11 5
14 12 8 7 6 4 8 9 10 10 15 11 10 10 10 9 10 9 11 11 10 12 11 15 16 15 18 18 13 7 6 6
11 10 6 5 3 3 6 9 10 10 9 10 10 9 9 8 8 8 8 8 7 6 7 10 13 10 17 14 4 7 6 5
Wind_Direction
295 291 279 263 250 233 230 231 227 221 218 217 217 219 220 220 220 219 222 221 215 217 219 221 223 224 225 227 229 221 224 226
309 303 288 274 252 251 236 233 229 225 219 215 213 215 217 218 219 220 220 215 216 217 219 222 224 223 219 218 222 215 228 226
317 318 306 295 283 265 239 227 228 225 221 218 216 213 214 216 217 215 217 215 217 217 218 221 222 220 217 212 208 216 221 228
336 324 315 299 288 272 255 237 223 219 218 218 217 211 214 217 220 215 216 218 217 216 218 218 218 212 209 213 214 210 218 207
315 312 298 282 269 271 271 251 235 221 213 214 212 213 216 216 214 212 211 212 210 204 204 206 206 215 210 194 154 120 116 116
306 300 297 288 270 261 254 257 237 232 228 224 205 195 190 188 178 151 161 161 139 126 109 102 103 108 125 133 133 127 123 118
272 266 266 267 257 251 251 236 213 217 222 202 176 149 147 127 128 128 131 126 121 122 129 118 103 117 117 130 128 129 138 140
273 268 255 237 230 230 224 209 211 206 178 169 155 159 156 149 144 141 139 129 130 128 129 121 124 139 133 129 141 148 158 160
274 278 270 251 224 225 189 200 208 200 177 167 170 166 155 152 153 145 142 146 141 139 136 132 150 157 150 145 141 138 145 152
278 280 278 246 218 208 192 186 185 200 202 180 177 170 168 168 164 152 143 140 149 148 145 143 162 164 150 142 138 142 140 122
276 277 272 258 208 198 204 193 207 196 197 189 174 174 176 169 161 156 153 145 143 134 139 151 154 162 163 156 145 126 128 118
275 267 260 251 196 213 206 212 204 190 180 183 175 173 169 159 151 147 145 137 134 127 128 149 148 153 157 156 149 152 139 143
280 271 268 232 197 222 214 215 190 173 172 175 168 161 156 156 150 149 148 143 142 140 146 164 172 165 156 149 149 147 142 146
294 283 281 220 209 224 228 185 169 166 171 168 162 162 165 162 161 157 157 155 156 162 164 166 169 157 158 157 144 141 138 128
297 278 274 238 222 232 184 169 165 173 167 163 164 160 164 170 170 165 168 164 166 164 162 157 164 167 161 152 151 149 135 124
292 283 275 260 235 225 174 166 164 165 166 170 166 166 159 164 171 175 179 184 171 169 161 160 169 178 167 165 162 157 143 131
290 275 278 246 234 206 177 178 169 162 165 173 166 161 156 148 141 125 146 163 153 151 152 136 137 148 154 155 152 150 149 154
286 281 271 237 223 200 192 183 184 173 165 159 160 164 156 156 149 141 128 133 133 133 136 139 145 148 149 150 152 155 152 149
301 281 261 222 198 216 202 182 178 164 159 156 154 155 153 158 152 154 150 147 141 138 138 146 146 152 153 134 123 130 141 156
300 292 276 231 163 291 219 176 164 155 157 150 144 145 145 144 145 142 144 145 125 116 97 132 137 143 155 153 155 154 152 147